User: anonymous   Login
Location: Unspecified
(0.0000°N, 0.0000°E)
Time: 23:51:09
(UTC+00:00)
Language:

STARLINK-11370 [DTC] - Orbit

View from above orbital plane
View from above orbital plane
View from above satellite
View from above satellite

Ground track
Ground track

The orbit is defined by the following mean orbital elements,

1 61584U          26145.38548029 +.00000000 +00000-0 +19030-4 0 00001
2 61584  53.1587 278.3583 0000812  86.2284 273.8827 15.69715043    00
Epoch (UTC): 25 May 2026 09:15:05
Eccentricity: 0.0000812
inclination: 53.1587°
perigee height: 359 km
apogee height: 360 km
right ascension of ascending node: 278.3583°
argument of perigee: 86.2284°
revolutions per day: 15.69715043
mean anomaly at epoch: 273.8827°

The dashed part of the orbit path shows where the satellite is in the earth's shadow,  

DLR